Weather History for KSUS - January, 2014

Change the Weather History Date:

Thursday, January 16, 2014

  Actual Average Record
Temperature  
Mean Temperature 36 °F -  
Max Temperature 46 °F 36 °F 53 °F (2015)
Min Temperature 24 °F 18 °F 21 °F (2015)
Degree Days  
Heating Degree Days 29    
Moisture  
Dew Point 21 °F    
Average Humidity 60    
Maximum Humidity 80    
Minimum Humidity 41    
Precipitation  
Precipitation 0.01 in - - ()
Sea Level Pressure  
Sea Level Pressure 29.82 in    
Wind  
Wind Speed 9 mph (WSW)    
Max Wind Speed 22 mph    
Max Gust Speed 39 mph    
Visibility 8 miles    
Events Snow    
Averages and records for this station are not official NWS values.
T = Trace of Precipitation, MM = Missing Value Source: NWS Daily Summary

Daily Weather History Graph

Daily Weather History Graph

Search for Another Location

Airport or City:

Trip Planner

Search our weather history database for the weather conditions in past years. The results will help you decide how hot, cold, wet, or windy it might be!

Date:

Astronomy

Jan. 16, 2014 Rise Set
Actual Time 7:18 AM CST 5:06 PM CST
Civil Twilight 6:49 AM CST 5:35 PM CST
Nautical Twilight 6:17 AM CST 6:08 PM CST
Astronomical Twilight 5:45 AM CST 6:40 PM CST
Moon 5:57 PM CST (1/16) 7:13 AM CST (1/16)
Length of Visible Light 10h 45m
Length of Day
9h 47m
Full, 100% of the Moon is Illuminated
Jan 16
Full
Jan 23
Last Quarter
Jan 30
New
Feb 6
First Quarter
Feb 14
Full

Hourly Weather History & Observations

Time (CST) Temp. Windchill Dew Point Humidity Pressure Visibility Wind Dir Wind Speed Gust Speed Precip Events Conditions
12:54 AM 28.0 °F 21.7 °F 9.0 °F 45% 29.94 in 10.0 mi SSW 5.8 mph - N/A   Overcast
1:54 AM 30.0 °F 24.1 °F 9.0 °F 41% 29.93 in 10.0 mi South 5.8 mph - N/A   Overcast
2:54 AM 28.9 °F 19.8 °F 14.0 °F 54% 29.91 in 4.0 mi SSW 10.4 mph - 0.00 in Snow Light Snow
3:05 AM 28.4 °F 21.2 °F 17.6 °F 64% 29.87 in 2.5 mi SSW 6.9 mph - 0.00 in Snow Light Snow
3:17 AM 28.4 °F 21.2 °F 19.4 °F 69% 29.86 in 3.0 mi Variable 6.9 mph - 0.00 in Snow Light Snow
3:24 AM 26.6 °F 19.1 °F 19.4 °F 74% 29.86 in 2.5 mi SW 6.9 mph - 0.00 in Snow Light Snow
3:44 AM 26.6 °F 19.1 °F 21.2 °F 80% 29.84 in 1.8 mi South 6.9 mph - 0.00 in Snow Light Snow
3:52 AM 26.6 °F 22.6 °F 21.2 °F 80% 29.83 in 2.5 mi SSW 3.5 mph - 0.00 in Snow Light Snow
3:54 AM 27.0 °F 20.5 °F 21.0 °F 78% 29.86 in 3.0 mi SSW 5.8 mph - 0.00 in Snow Light Snow
4:54 AM 28.9 °F 21.9 °F 21.0 °F 72% 29.83 in 8.0 mi SSW 6.9 mph - 0.00 in Snow Light Snow
5:54 AM 32.0 °F 24.8 °F 19.0 °F 59% 29.80 in 10.0 mi SSW 8.1 mph - 0.00 in   Overcast
6:54 AM 33.1 °F 23.4 °F 17.1 °F 52% 29.77 in 10.0 mi SSW 13.8 mph 19.6 mph N/A   Scattered Clouds
7:54 AM 34.0 °F 26.0 °F 16.0 °F 48% 29.76 in 10.0 mi WSW 10.4 mph 18.4 mph N/A   Partly Cloudy
8:54 AM 36.0 °F 28.0 °F 18.0 °F 48% 29.78 in 10.0 mi SW 11.5 mph - N/A   Mostly Cloudy
9:54 AM 39.0 °F 31.0 °F 21.0 °F 49% 29.78 in 10.0 mi WSW 13.8 mph - N/A   Scattered Clouds
10:54 AM 41.0 °F 35.2 °F 24.1 °F 51% 29.78 in 10.0 mi West 9.2 mph - N/A   Overcast
11:54 AM 44.1 °F 38.6 °F 26.1 °F 49% 29.75 in 10.0 mi West 10.4 mph - N/A   Mostly Cloudy
12:54 PM 44.1 °F 36.8 °F 25.0 °F 47% 29.73 in 10.0 mi WNW 16.1 mph 34.5 mph N/A   Overcast
1:54 PM 46.0 °F 39.0 °F 24.1 °F 42% 29.73 in 10.0 mi WNW 17.3 mph 25.3 mph N/A   Overcast
2:54 PM 45.0 °F 38.9 °F 23.0 °F 42% 29.75 in 10.0 mi West 12.7 mph - N/A   Overcast
3:54 PM 41.0 °F 33.5 °F 30.0 °F 65% 29.78 in 10.0 mi West 13.8 mph 20.7 mph 0.00 in   Overcast
4:54 PM 39.0 °F 28.8 °F 28.9 °F 67% 29.82 in 10.0 mi WNW 21.9 mph 39.1 mph 0.00 in   Overcast
5:54 PM 35.1 °F 32.2 °F 28.0 °F 76% 29.82 in 10.0 mi WSW 3.5 mph - 0.00 in   Mostly Cloudy
6:54 PM 36.0 °F 29.0 °F 27.0 °F 70% 29.82 in 10.0 mi WSW 9.2 mph - N/A   Mostly Cloudy
7:54 PM 37.0 °F 29.8 °F 27.0 °F 67% 29.81 in 10.0 mi WSW 10.4 mph - N/A   Mostly Cloudy
8:54 PM 37.0 °F 27.4 °F 26.1 °F 65% 29.81 in 9.0 mi West 17.3 mph 25.3 mph N/A   Overcast
9:54 PM 34.0 °F 24.6 °F 21.9 °F 61% 29.84 in 10.0 mi West 13.8 mph 25.3 mph 0.01 in   Mostly Cloudy
10:54 PM 28.0 °F 14.6 °F 17.1 °F 63% 29.88 in 10.0 mi NW 20.7 mph 33.4 mph N/A   Overcast
11:54 PM 24.1 °F 9.0 °F 12.9 °F 62% 29.92 in 10.0 mi WNW 21.9 mph 29.9 mph 0.00 in   Overcast